This demonstration page uses our WeatherBlox Daily Observations layout. Learn more.

Left ArrowRight Arrow

34.16533, -84.80231

Hourly Observations for June 25, 2019

Temp ( °F °C ) Dew Point ( °F °C ) Humidity (%) Winds ( mph kmh ) Pressure ( in mb ) Visibility ( mi km ) Precip ( " mm )
12:53 am 00:53 Clear 66 18.9 66 18.9 100 100 Calm 29.94 1014 9 14 0.00 0.00
1:53 am 01:53 Clear 66 18.9 65 18.3 96 96 Calm 29.94 1014 9 14 0.00 0.00
2:53 am 02:53 Clear 65 18.3 65 18.3 100 100 Calm 29.94 1014 9 14 0.00 0.00
3:53 am 03:53 Clear 66 18.9 65 18.3 96 96 Calm 29.96 1015 8 13 0.00 0.00
4:53 am 04:53 Mostly Clear 66 18.9 65 18.3 96 96 Calm 29.98 1015 9 14 0.00 0.00
5:53 am 05:53 Mostly Cloudy 67 19.4 66 18.9 97 97 Calm 30.00 1016 10 16 0.00 0.00
6:53 am 06:53 Sunny 66 18.9 65 18.3 96 96 Calm 30.02 1017 10 16 0.00 0.00
7:53 am 07:53 Sunny 69 20.6 68 20 96 96 Calm 30.04 1017 10 16 0.00 0.00
8:53 am 08:53 Sunny 71 21.7 69 20.6 94 94 Calm 30.05 1018 10 16 0.00 0.00
9:53 am 09:53 Sunny 77 25 70 21.1 79 79 Calm 30.06 1018 10 16 0.00 0.00
10:53 am 10:53 Sunny 80 26.7 70 21.1 71 71 VRB 3 6 30.06 1018 10 16 0.00 0.00
11:53 am 11:53 Mostly Sunny 82 27.8 68 20 63 63 VRB 6 9 30.07 1018 10 16 0.00 0.00
12:53 pm 12:53 Mostly Sunny 83 28.3 67 19.4 59 59 NNW 3 6 30.07 1018 10 16 0.00 0.00
1:53 pm 13:53 Sunny 84 28.9 65 18.3 53 53 NNW 8 13 30.06 1018 10 16 0.00 0.00
2:53 pm 14:53 Sunny 85 29.4 65 18.3 51 51 VRB 3 6 30.06 1018 10 16 0.00 0.00
3:53 pm 15:53 Mostly Cloudy 85 29.4 65 18.3 51 51 VRB 5 7 30.05 1018 10 16 0.00 0.00
4:53 pm 16:53 Mostly Sunny 85 29.4 64 17.8 50 50 VRB 5 7 30.04 1017 10 16 0.00 0.00
5:53 pm 17:53 Sunny 87 30.6 63 17.2 45 45 NNW 8 13 30.03 1017 10 16 0.00 0.00
6:53 pm 18:53 Sunny 85 29.4 64 17.8 50 50 Calm 30.02 1017 10 16 0.00 0.00
7:53 pm 19:53 Sunny 83 28.3 64 17.8 53 53 Calm 30.02 1017 10 16 0.00 0.00
8:53 pm 20:53 Sunny 78 25.6 67 19.4 69 69 Calm 30.04 1017 10 16 0.00 0.00
9:53 pm 21:53 Clear 74 23.3 67 19.4 79 79 Calm 30.06 1018 10 16 0.00 0.00
10:53 pm 22:53 Clear 73 22.8 67 19.4 81 81 Calm 30.09 1019 10 16 0.00 0.00
11:53 pm 23:53 Clear 69 20.6 66 18.9 90 90 Calm 30.10 1019 10 16 0.00 0.00

Powered by AerisWeather